FW3232 Weather Reports


Display with metric or nautical units.
time (UTC)temp
F
wind
direction
speed
MPH
gust
MPH
rain 1hr
in
rain 24hr
in
rain mn
in
humidity
%
barometer
mb
20260506000416 48 100 3.0 4.0 0.00 0.00 0.00 96 1009.5
20260505235911 48 107 1.0 4.0 0.00 0.00 0.00 95 1009.5
20260505235412 48 104 2.0 7.0 0.00 0.00 0.00 94 1009.3
20260505234912 48 77 3.0 7.0 0.00 0.00 0.00 93 1009.0
20260505234411 49 103 3.0 8.0 0.00 0.00 0.00 92 1009.0
20260505233912 49 114 4.0 9.0 0.00 0.00 0.00 92 1008.9
20260505233411 49 104 2.0 8.0 0.00 0.00 0.00 91 1009.0
20260505232911 49 99 3.0 8.0 0.00 0.00 0.00 91 1009.0
20260505232411 49 21 2.0 10.0 0.00 0.00 0.00 90 1009.1
20260505231911 49 72 3.0 9.0 0.00 0.00 0.00 90 1009.2
20260505231412 49 122 4.0 9.0 0.00 0.00 0.00 92 1009.1
20260505230912 49 100 2.0 6.0 0.00 0.00 0.00 92 1009.2
20260505230411 49 53 3.0 8.0 0.00 0.00 0.00 93 1009.0
20260505225911 49 61 4.0 8.0 0.00 0.00 0.00 92 1008.8
20260505225412 49 46 2.0 7.0 0.00 0.00 0.00 93 1008.7
20260505224912 49 48 4.0 7.0 0.00 0.00 0.00 93 1008.5
20260505224412 49 47 3.0 7.0 0.00 0.00 0.00 93 1008.6
20260505223911 49 95 1.0 7.0 0.00 0.00 0.00 92 1008.5
20260505223411 49 42 4.0 9.0 0.00 0.00 0.00 92 1008.3
20260505222911 50 84 4.0 7.0 0.00 0.00 0.00 93 1008.3
20260505222415 50 26 3.0 7.0 0.00 0.00 0.00 93 1008.5
20260505221914 50 29 3.0 8.0 0.00 0.00 0.00 93 1008.3
20260505221412 50 89 4.0 8.0 0.00 0.00 0.00 93 1008.6
20260505220911 51 57 4.0 8.0 0.00 0.00 0.00 92 1009.0
20260505220411 51 110 3.0 11.0 0.00 0.00 0.00 91 1008.6
20260505215912 51 122 2.0 7.0 0.00 0.00 0.00 93 1008.3
20260505215411 51 60 3.0 8.0 0.00 0.00 0.00 93 1008.1
20260505214913 51 65 3.0 7.0 0.00 0.00 0.00 93 1008.2
20260505214411 51 86 4.0 9.0 0.00 0.00 0.00 92 1008.1
20260505213913 51 105 6.0 9.0 0.00 0.00 0.00 90 1008.2
20260505213414 51 56 2.0 8.0 0.00 0.00 0.00 91 1008.2
20260505212912 52 92 4.0 11.0 0.00 0.00 0.00 91 1008.2
20260505212412 52 94 3.0 10.0 0.00 0.00 0.00 90 1008.1
20260505211913 52 56 4.0 9.0 0.00 0.00 0.00 91 1008.2
20260505211413 52 59 4.0 7.0 0.00 0.00 0.00 91 1008.1
20260505210911 53 49 4.0 7.0 0.00 0.00 0.00 91 1008.1
20260505210413 53 100 2.0 7.0 0.00 0.00 0.00 90 1008.1
20260505205913 53 84 3.0 7.0 0.00 0.00 0.00 91 1008.1
20260505205415 53 93 2.0 8.0 0.00 0.00 0.00 91 1008.1
20260505204912 53 56 4.0 8.0 0.00 0.00 0.00 90 1008.0
20260505204413 53 118 1.0 8.0 0.00 0.00 0.00 91 1007.9
20260505203914 53 59 3.0 7.0 0.00 0.00 0.00 91 1007.9
20260505203414 53 87 3.0 9.0 0.00 0.00 0.00 90 1008.0
20260505202914 53 89 3.0 6.0 0.00 0.00 0.00 90 1008.1
20260505202414 53 88 3.0 6.0 0.00 0.00 0.00 91 1008.2
20260505201914 54 65 2.0 5.0 0.00 0.00 0.00 92 1008.2
20260505201413 54 65 2.0 6.0 0.00 0.00 0.00 92 1008.3
20260505200914 54 36 2.0 6.0 0.00 0.00 0.00 90 1008.3
20260505200413 54 57 2.0 10.0 0.00 0.00 0.00 90 1007.9
20260505195914 54 90 4.0 14.0 0.00 0.00 0.00 90 1007.5
20260505195411 54 117 6.0 14.0 0.00 0.00 0.00 92 1007.4
20260505194914 55 120 4.0 7.0 0.00 0.00 0.00 93 1007.5
20260505194411 55 83 3.0 8.0 0.00 0.00 0.00 93 1007.5
20260505193914 55 75 1.0 6.0 0.00 0.00 0.00 94 1007.5
20260505193414 55 89 2.0 6.0 0.00 0.00 0.00 94 1007.3
20260505192914 55 74 2.0 6.0 0.00 0.00 0.00 95 1007.5
20260505192413 55 103 2.0 6.0 0.00 0.00 0.00 94 1007.7
20260505191912 55 124 2.0 5.0 0.00 0.00 0.00 94 1008.0
20260505191411 54 22 3.0 10.0 0.00 0.00 0.00 95 1007.9
20260505190913 54 111 6.0 10.0 0.00 0.00 0.00 94 1007.8
20260505190413 55 113 2.0 6.0 0.00 0.00 0.00 94 1007.8
20260505185430 55 55 6.0 11.0 0.00 0.00 0.00 94 1007.6
20260505184914 55 80 3.0 6.0 0.00 0.00 0.00 94 1007.5
20260505184412 55 27 2.0 9.0 0.00 0.00 0.00 94 1007.4
20260505183914 55 50 3.0 7.0 0.00 0.00 0.00 94 1007.1
20260505183413 55 44 4.0 9.0 0.00 0.00 0.00 95 1007.1
20260505182914 55 59 3.0 8.0 0.00 0.00 0.00 94 1007.3
20260505182413 56 69 5.0 8.0 0.00 0.00 0.00 94 1007.4
20260505181911 56 74 4.0 8.0 0.00 0.00 0.00 94 1007.3
20260505180926 56 39 2.0 6.0 0.00 0.00 0.00 94 1007.3
20260505180414 56 86 2.0 5.0 0.00 0.00 0.00 94 1007.3
20260505175913 57 20 2.0 7.0 0.00 0.00 0.00 93 1007.3
20260505175414 57 73 3.0 6.0 0.00 0.00 0.00 92 1007.3
20260505174913 58 97 2.0 8.0 0.00 0.00 0.00 91 1007.3
20260505174411 58 35 6.0 8.0 0.00 0.00 0.00 91 1007.1
20260505173914 59 55 4.0 7.0 0.00 0.00 0.00 90 1007.2
20260505173413 59 59 2.0 9.0 0.00 0.00 0.00 89 1007.1
20260505172913 59 54 2.0 9.0 0.00 0.00 0.00 90 1007.1
20260505172414 59 74 2.0 8.0 0.00 0.00 0.00 90 1007.1
20260505171914 59 56 4.0 8.0 0.00 0.00 0.00 90 1007.0
20260505171414 59 342 3.0 5.0 0.00 0.00 0.00 92 1007.1
20260505170914 60 95 2.0 7.0 0.00 0.00 0.00 91 1006.9
20260505170413 60 80 2.0 7.0 0.00 0.00 0.00 91 1007.0
20260505165913 60 338 2.0 6.0 0.00 0.00 0.00 92 1007.0
20260505165414 60 95 2.0 5.0 0.00 0.00 0.00 93 1007.0
20260505164914 60 103 2.0 5.0 0.00 0.00 0.00 93 1006.9
20260505164414 60 75 2.0 5.0 0.00 0.00 0.00 93 1006.8
20260505163912 60 73 2.0 4.0 0.00 0.00 0.00 93 1006.9
20260505163413 60 51 1.0 6.0 0.00 0.00 0.00 93 1006.9
20260505162912 61 108 3.0 6.0 0.00 0.00 0.00 92 1006.9
20260505162411 61 56 3.0 8.0 0.00 0.00 0.00 91 1006.9
20260505161912 62 70 2.0 8.0 0.00 0.00 0.00 91 1006.9
20260505161414 63 66 3.0 9.0 0.00 0.00 0.00 90 1006.9
20260505160914 64 52 3.0 7.0 0.00 0.00 0.00 87 1006.7
20260505160415 65 106 2.0 6.0 0.00 0.00 0.00 87 1006.6
20260505152914 67 150 5.0 10.0 0.00 0.00 0.00 83 1006.4
20260505152415 67 126 8.0 11.0 0.00 0.00 0.00 83 1006.1
20260505151914 66 130 4.0 11.0 0.00 0.00 0.00 84 1006.0
20260505151412 65 146 6.0 9.0 0.00 0.00 0.00 86 1005.9
20260505150914 65 148 3.0 5.0 0.00 0.00 0.00 85 1006.4
20260505150414 65 166 4.0 5.0 0.00 0.00 0.00 85 1006.5
20260505101915 60 0 0.0 3.0 0.00 0.00 0.00 99 1005.6
20260505101413 60 36 2.0 3.0 0.00 0.00 0.00 99 1005.7
20260505090412 60 145 3.0 3.0 0.00 0.00 0.00 99 1006.0
20260505085414 60 13 2.0 3.0 0.00 0.00 0.00 99 1006.8
20260505064411 60 332 0.0 2.0 0.00 0.00 0.00 92 1006.2
20260505063913 60 358 0.0 2.0 0.00 0.00 0.00 91 1006.2
20260505063411 61 333 0.0 2.0 0.00 0.00 0.00 90 1006.2
20260505062912 61 346 0.0 2.0 0.00 0.00 0.00 88 1006.3
20260505062412 61 0 0.0 0.0 0.00 0.00 0.00 87 1006.3
20260505061913 61 0 0.0 2.0 0.00 0.00 0.00 86 1006.4
20260505061412 61 0 0.0 1.0 0.00 0.00 0.00 85 1006.4
20260505060919 61 0 0.0 0.0 0.00 0.00 0.00 86 1006.6
20260505060411 61 0 0.0 1.0 0.00 0.00 0.00 86 1006.5
20260505055912 61 0 0.0 1.0 0.00 0.00 0.00 86 1006.6
20260505055411 61 333 0.0 1.0 0.00 0.00 0.00 85 1006.7
20260505054911 61 0 0.0 1.0 0.00 0.00 0.00 85 1006.7
20260505054412 61 358 0.0 2.0 0.00 0.00 0.00 85 1006.6
20260505053911 61 331 1.0 2.0 0.00 0.00 0.00 86 1006.6
20260505053411 60 330 0.0 2.0 0.00 0.00 0.00 85 1006.6
20260505052912 60 332 0.0 2.0 0.00 0.00 0.00 85 1006.6
20260505052412 61 339 1.0 2.0 0.00 0.00 0.00 85 1006.3
20260505051912 61 345 1.0 1.0 0.00 0.00 0.00 84 1006.2
20260505051411 61 327 0.0 1.0 0.00 0.00 0.00 84 1006.2
20260505050912 61 0 0.0 1.0 0.00 0.00 0.00 84 1006.3
20260505050413 60 1 0.0 2.0 0.00 0.00 0.00 84 1006.4
20260505041411 62 0 0.0 1.0 0.00 0.00 0.00 83 1006.9
20260505040913 62 0 0.0 2.0 0.00 0.00 0.00 82 1007.0
20260505040411 62 329 0.0 2.0 0.00 0.00 0.00 80 1007.1
20260505035911 62 319 0.0 2.0 0.00 0.00 0.00 80 1007.2
20260505035413 62 353 1.0 2.0 0.00 0.00 0.00 80 1007.2
20260505034912 63 0 0.0 2.0 0.00 0.00 0.00 79 1007.2
20260505034411 63 0 0.0 0.0 0.00 0.00 0.00 79 1007.2
20260505033912 63 0 0.0 2.0 0.00 0.00 0.00 78 1007.2
20260505033411 63 347 2.0 2.0 0.00 0.00 0.00 78 1007.3
20260505032911 63 0 0.0 2.0 0.00 0.00 0.00 78 1007.2
20260505032412 63 0 0.0 2.0 0.00 0.00 0.00 78 1007.3
20260505031911 63 0 0.0 1.0 0.00 0.00 0.00 78 1007.4
20260505031412 63 0 0.0 2.0 0.00 0.00 0.00 78 1007.4
20260505030911 63 344 1.0 2.0 0.00 0.00 0.00 78 1007.3
20260505030411 64 351 1.0 2.0 0.00 0.00 0.00 77 1007.3
20260505025911 64 343 1.0 2.0 0.00 0.00 0.00 76 1007.3
20260505025411 64 356 0.0 2.0 0.00 0.00 0.00 76 1007.3
20260505024911 64 352 1.0 2.0 0.00 0.00 0.00 75 1007.3
20260505024411 64 0 0.0 1.0 0.00 0.00 0.00 75 1007.3
20260505023912 65 0 0.0 1.0 0.00 0.00 0.00 74 1007.2
20260505023412 65 0 0.0 2.0 0.00 0.00 0.00 72 1007.3
20260505022912 65 275 0.0 2.0 0.00 0.00 0.00 72 1007.3
20260505022412 66 320 0.0 2.0 0.00 0.00 0.00 71 1007.3
20260505021911 67 252 0.0 0.0 0.00 0.00 0.00 71 1007.1
20260505021411 67 0 0.0 0.0 0.00 0.00 0.00 69 1007.0
20260505020912 68 191 0.0 1.0 0.00 0.00 0.00 68 1006.9
20260505020412 68 0 0.0 2.0 0.00 0.00 0.00 67 1006.8
20260505015912 69 11 0.0 2.0 0.00 0.00 0.00 65 1006.8
20260505015411 69 12 0.0 3.0 0.00 0.00 0.00 64 1006.7
20260505014911 70 147 0.0 3.0 0.00 0.00 0.00 63 1006.6
20260505014411 70 0 0.0 3.0 0.00 0.00 0.00 62 1006.5
20260505013912 70 0 0.0 4.0 0.00 0.00 0.00 62 1006.4
20260505013412 70 117 2.0 4.0 0.00 0.00 0.00 62 1006.4
20260505012912 71 132 0.0 3.0 0.00 0.00 0.00 62 1006.3
20260505012411 71 342 1.0 4.0 0.00 0.00 0.00 61 1006.3
20260505011914 71 355 0.0 4.0 0.00 0.00 0.00 61 1006.3
20260505011413 71 17 2.0 5.0 0.00 0.00 0.00 61 1006.3
20260505010912 71 90 0.0 4.0 0.00 0.00 0.00 62 1006.1
20260505010412 71 53 1.0 5.0 0.00 0.00 0.00 62 1006.0
20260505005913 71 135 1.0 5.0 0.00 0.00 0.00 62 1006.0
20260505005411 71 170 3.0 4.0 0.00 0.00 0.00 63 1005.9
20260505004911 72 158 2.0 3.0 0.00 0.00 0.00 61 1005.9
20260505004415 72 53 1.0 3.0 0.00 0.00 0.00 61 1005.9
20260505003913 72 138 1.0 4.0 0.00 0.00 0.00 61 1005.8
20260505003412 73 177 0.0 2.0 0.00 0.00 0.00 61 1005.8
20260505002914 74 158 0.0 3.0 0.00 0.00 0.00 59 1005.6
20260505002411 74 146 1.0 4.0 0.00 0.00 0.00 57 1005.6
20260505001911 74 145 2.0 5.0 0.00 0.00 0.00 55 1005.5
20260505001411 75 58 2.0 5.0 0.00 0.00 0.00 55 1005.5
20260505000911 75 120 2.0 10.0 0.00 0.00 0.00 55 1005.5